www.luftgeist.de
Wetterdaten: aktuell Dienstag, 31.03.2020 02:40
Datum Zeit Auentemp. Sonne (%) Auenfeuchte Luftdruck Regenmenge Wind Windichtung Windichtung Sonnenschein Taupunkt Windchill Windben
31.03.2020 02:40 -1,0 C 0 % 86 % 1026,0 hPa 0,0 l/m 0,0 km/h (0 Bft) W 270 0 min -3,0 C -1,0 C 0,0 km/h (0 Bft)
31.03.2020 02:35 -0,9 C 0 % 85 % 1026,0 hPa 0,0 l/m 0,0 km/h (0 Bft) W 270 0 min -3,1 C -0,9 C 0,0 km/h (0 Bft)
31.03.2020 02:30 -0,7 C 0 % 85 % 1026,0 hPa 0,0 l/m 0,0 km/h (0 Bft) S 180 0 min -2,9 C -0,7 C 0,0 km/h (0 Bft)
31.03.2020 02:25 -0,5 C 0 % 85 % 1026,0 hPa 0,0 l/m 0,0 km/h (0 Bft) SW 225 0 min -2,7 C -0,5 C 0,0 km/h (0 Bft)
31.03.2020 02:20 -0,3 C 0 % 85 % 1025,9 hPa 0,0 l/m 0,0 km/h (0 Bft) NW 315 0 min -2,5 C -0,3 C 0,0 km/h (0 Bft)
31.03.2020 02:15 -0,3 C 0 % 85 % 1025,9 hPa 0,0 l/m 0,0 km/h (0 Bft) W 270 0 min -2,5 C -0,3 C 0,0 km/h (0 Bft)
31.03.2020 02:10 0,0 C 0 % 85 % 1025,9 hPa 0,0 l/m 0,0 km/h (0 Bft) W-NW 292 0 min -2,2 C 0,0 C 0,0 km/h (0 Bft)
31.03.2020 02:05 0,1 C 0 % 85 % 1025,9 hPa 0,0 l/m 0,0 km/h (0 Bft) S 180 0 min -2,1 C 0,1 C 0,0 km/h (0 Bft)
31.03.2020 02:00 0,2 C 0 % 84 % 1025,7 hPa 0,0 l/m 0,0 km/h (0 Bft) S-SW 202 0 min -2,2 C 0,2 C 0,0 km/h (0 Bft)
31.03.2020 01:55 0,3 C 0 % 84 % 1025,7 hPa 0,0 l/m 0,0 km/h (0 Bft) S-SW 202 0 min -2,1 C 0,3 C 0,0 km/h (0 Bft)
31.03.2020 01:50 0,5 C 0 % 84 % 1025,7 hPa 0,0 l/m 0,0 km/h (0 Bft) W-SW 247 0 min -1,9 C 0,5 C 0,0 km/h (0 Bft)
31.03.2020 01:45 0,5 C 0 % 84 % 1025,7 hPa 0,0 l/m 0,0 km/h (0 Bft) N-NW 337 0 min -1,9 C 0,5 C 0,0 km/h (0 Bft)
31.03.2020 01:40 0,6 C 0 % 83 % 1025,8 hPa 0,0 l/m 0,0 km/h (0 Bft) S-SW 202 0 min -1,9 C 0,6 C 0,0 km/h (0 Bft)
31.03.2020 01:35 0,7 C 0 % 83 % 1025,8 hPa 0,0 l/m 0,0 km/h (0 Bft) S-SW 202 0 min -1,8 C 0,7 C 0,0 km/h (0 Bft)
31.03.2020 01:30 0,9 C 0 % 83 % 1025,8 hPa 0,0 l/m 0,0 km/h (0 Bft) S 180 0 min -1,7 C 0,9 C 0,0 km/h (0 Bft)
31.03.2020 01:25 0,9 C 0 % 83 % 1025,8 hPa 0,0 l/m 0,0 km/h (0 Bft) S-SO 157 0 min -1,7 C 0,9 C 0,0 km/h (0 Bft)
31.03.2020 01:20 1,1 C 0 % 83 % 1025,6 hPa 0,0 l/m 0,0 km/h (0 Bft) S-SO 157 0 min -1,5 C 1,1 C 0,0 km/h (0 Bft)
31.03.2020 01:15 1,1 C 0 % 83 % 1025,6 hPa 0,0 l/m 0,0 km/h (0 Bft) S 180 0 min -1,5 C 1,1 C 0,0 km/h (0 Bft)
31.03.2020 01:10 1,2 C 0 % 83 % 1025,6 hPa 0,0 l/m 0,0 km/h (0 Bft) O-NO 67 0 min -1,4 C 1,2 C 0,0 km/h (0 Bft)
31.03.2020 01:05 1,3 C 0 % 83 % 1025,6 hPa 0,0 l/m 0,0 km/h (0 Bft) N-NW 337 0 min -1,3 C 1,3 C 0,0 km/h (0 Bft)
31.03.2020 01:00 1,3 C 0 % 83 % 1025,6 hPa 0,0 l/m 0,0 km/h (0 Bft) N-NO 22 0 min -1,3 C 1,3 C 0,0 km/h (0 Bft)
31.03.2020 00:55 1,3 C 0 % 83 % 1025,6 hPa 0,0 l/m 0,0 km/h (0 Bft) N-NW 337 0 min -1,3 C 1,3 C 0,0 km/h (0 Bft)
31.03.2020 00:50 1,3 C 0 % 83 % 1025,6 hPa 0,0 l/m 0,0 km/h (0 Bft) N-NO 22 0 min -1,3 C 1,3 C 0,0 km/h (0 Bft)
31.03.2020 00:45 1,3 C 0 % 83 % 1025,6 hPa 0,0 l/m 0,0 km/h (0 Bft) NW 315 0 min -1,3 C 1,3 C 0,0 km/h (0 Bft)
31.03.2020 00:40 1,4 C 0 % 83 % 1025,6 hPa 0,0 l/m 0,0 km/h (0 Bft) N 360 0 min -1,2 C 1,4 C 0,0 km/h (0 Bft)
31.03.2020 00:35 1,4 C 0 % 83 % 1025,6 hPa 0,0 l/m 0,5 km/h (0 Bft) N-NW 337 0 min -1,2 C 1,4 C 0,0 km/h (0 Bft)
31.03.2020 00:30 1,4 C 0 % 83 % 1025,6 hPa 0,0 l/m 0,5 km/h (0 Bft) NW 315 0 min -1,2 C 1,4 C 2,6 km/h (1 Bft)
31.03.2020 00:25 1,4 C 0 % 83 % 1025,6 hPa 0,0 l/m 0,0 km/h (0 Bft) NW 315 0 min -1,2 C 1,4 C 1,6 km/h (1 Bft)
31.03.2020 00:20 1,4 C 0 % 83 % 1025,4 hPa 0,0 l/m 0,2 km/h (0 Bft) NW 315 0 min -1,2 C 1,4 C 0,0 km/h (0 Bft)
31.03.2020 00:15 1,5 C 0 % 83 % 1025,4 hPa 0,0 l/m 0,2 km/h (0 Bft) N-NO 22 0 min -1,1 C 1,5 C 0,0 km/h (0 Bft)
31.03.2020 00:10 1,5 C 0 % 83 % 1025,4 hPa 0,0 l/m 0,2 km/h (0 Bft) N-NW 337 0 min -1,1 C 1,5 C 1,8 km/h (1 Bft)
31.03.2020 00:05 1,5 C 0 % 83 % 1025,4 hPa 0,0 l/m 0,0 km/h (0 Bft) NW 315 0 min -1,1 C 1,5 C 0,0 km/h (0 Bft)
31.03.2020 00:00 1,5 C 0 % 83 % 1025,6 hPa 0,0 l/m 0,0 km/h (0 Bft) NW 315 0 min -1,1 C 1,5 C 0,0 km/h (0 Bft)
30.03.2020 23:55 1,5 C 0 % 83 % 1025,6 hPa 0,0 l/m 0,0 km/h (0 Bft) N-NW 337 0 min -1,1 C 1,5 C 0,0 km/h (0 Bft)
30.03.2020 23:50 1,5 C 0 % 83 % 1025,6 hPa 0,0 l/m 0,5 km/h (0 Bft) W-SW 247 0 min -1,1 C 1,5 C 0,0 km/h (0 Bft)
30.03.2020 23:45 1,5 C 0 % 83 % 1025,6 hPa 0,0 l/m 0,8 km/h (0 Bft) W-NW 292 0 min -1,1 C 1,5 C 2,3 km/h (1 Bft)
30.03.2020 23:40 1,5 C 0 % 83 % 1025,4 hPa 0,0 l/m 0,5 km/h (0 Bft) W-NW 292 0 min -1,1 C 1,5 C 2,9 km/h (1 Bft)
30.03.2020 23:35 1,5 C 0 % 82 % 1025,4 hPa 0,0 l/m 0,0 km/h (0 Bft) W-NW 292 0 min -1,2 C 1,5 C 0,0 km/h (0 Bft)
30.03.2020 23:30 1,5 C 0 % 82 % 1025,4 hPa 0,0 l/m 0,0 km/h (0 Bft) O 90 0 min -1,2 C 1,5 C 0,0 km/h (0 Bft)
30.03.2020 23:25 1,6 C 0 % 82 % 1025,4 hPa 0,0 l/m 0,0 km/h (0 Bft) O 90 0 min -1,1 C 1,6 C 0,0 km/h (0 Bft)
30.03.2020 23:20 1,6 C 0 % 82 % 1025,6 hPa 0,0 l/m 0,0 km/h (0 Bft) O-SO 112 0 min -1,1 C 1,6 C 0,0 km/h (0 Bft)
30.03.2020 23:15 1,6 C 0 % 82 % 1025,6 hPa 0,0 l/m 0,2 km/h (0 Bft) O-SO 112 0 min -1,1 C 1,6 C 0,0 km/h (0 Bft)
30.03.2020 23:10 1,6 C 0 % 82 % 1025,6 hPa 0,0 l/m 0,2 km/h (0 Bft) N-NW 337 0 min -1,1 C 1,6 C 1,6 km/h (1 Bft)
30.03.2020 23:05 1,7 C 0 % 82 % 1025,6 hPa 0,0 l/m 0,3 km/h (0 Bft) NO 45 0 min -1,0 C 1,7 C 0,0 km/h (0 Bft)
30.03.2020 23:00 1,7 C 0 % 82 % 1025,4 hPa 0,0 l/m 0,5 km/h (0 Bft) SO 135 0 min -1,0 C 1,7 C 0,0 km/h (0 Bft)
30.03.2020 22:55 1,7 C 0 % 82 % 1025,4 hPa 0,0 l/m 0,3 km/h (0 Bft) O-NO 67 0 min -1,0 C 1,7 C 2,3 km/h (1 Bft)
30.03.2020 22:50 1,6 C 0 % 82 % 1025,4 hPa 0,0 l/m 0,0 km/h (0 Bft) NW 315 0 min -1,1 C 1,6 C 0,0 km/h (0 Bft)
30.03.2020 22:45 1,6 C 0 % 81 % 1025,4 hPa 0,0 l/m 0,0 km/h (0 Bft) NO 45 0 min -1,3 C 1,6 C 1,6 km/h (1 Bft)
30.03.2020 22:40 1,5 C 0 % 81 % 1025,2 hPa 0,0 l/m 0,0 km/h (0 Bft) N-NW 337 0 min -1,4 C 1,5 C 0,0 km/h (0 Bft)
30.03.2020 22:35 1,5 C 0 % 81 % 1025,2 hPa 0,0 l/m 0,0 km/h (0 Bft) O-NO 67 0 min -1,4 C 1,5 C 0,0 km/h (0 Bft)
30.03.2020 22:30 1,5 C 0 % 81 % 1025,2 hPa 0,0 l/m 0,0 km/h (0 Bft) NO 45 0 min -1,4 C 1,5 C 0,0 km/h (0 Bft)
30.03.2020 22:25 1,5 C 0 % 81 % 1025,2 hPa 0,0 l/m 0,0 km/h (0 Bft) NO 45 0 min -1,4 C 1,5 C 0,0 km/h (0 Bft)
30.03.2020 22:20 1,5 C 0 % 80 % 1025,2 hPa 0,0 l/m 0,0 km/h (0 Bft) NO 45 0 min -1,6 C 1,5 C 0,0 km/h (0 Bft)
30.03.2020 22:15 1,6 C 0 % 80 % 1025,2 hPa 0,0 l/m 0,0 km/h (0 Bft) N 360 0 min -1,5 C 1,6 C 0,0 km/h (0 Bft)
30.03.2020 22:10 1,6 C 0 % 80 % 1025,2 hPa 0,0 l/m 0,0 km/h (0 Bft) S 180 0 min -1,5 C 1,6 C 0,0 km/h (0 Bft)
30.03.2020 22:05 1,6 C 0 % 80 % 1025,2 hPa 0,0 l/m 0,0 km/h (0 Bft) S-SW 202 0 min -1,5 C 1,6 C 0,0 km/h (0 Bft)
30.03.2020 22:00 1,7 C 0 % 80 % 1024,9 hPa 0,0 l/m 0,0 km/h (0 Bft) S 180 0 min -1,4 C 1,7 C 0,0 km/h (0 Bft)
30.03.2020 21:55 1,7 C 0 % 79 % 1024,9 hPa 0,0 l/m 0,0 km/h (0 Bft) S-SO 157 0 min -1,5 C 1,7 C 0,0 km/h (0 Bft)
30.03.2020 21:50 1,7 C 0 % 79 % 1024,9 hPa 0,0 l/m 0,0 km/h (0 Bft) S-SO 157 0 min -1,5 C 1,7 C 0,0 km/h (0 Bft)
30.03.2020 21:45 1,7 C 0 % 79 % 1024,9 hPa 0,0 l/m 0,0 km/h (0 Bft) SW 225 0 min -1,5 C 1,7 C 0,0 km/h (0 Bft)
30.03.2020 21:40 1,7 C 0 % 79 % 1025,0 hPa 0,0 l/m 0,0 km/h (0 Bft) N-NW 337 0 min -1,5 C 1,7 C 0,0 km/h (0 Bft)
30.03.2020 21:35 1,7 C 0 % 79 % 1025,0 hPa 0,0 l/m 0,0 km/h (0 Bft) NW 315 0 min -1,5 C 1,7 C 0,0 km/h (0 Bft)
30.03.2020 21:30 1,7 C 0 % 79 % 1025,0 hPa 0,0 l/m 0,0 km/h (0 Bft) NW 315 0 min -1,5 C 1,7 C 0,0 km/h (0 Bft)
30.03.2020 21:25 1,7 C 0 % 78 % 1025,0 hPa 0,0 l/m 0,0 km/h (0 Bft) N-NW 337 0 min -1,7 C 1,7 C 0,0 km/h (0 Bft)
30.03.2020 21:20 1,7 C 0 % 78 % 1025,0 hPa 0,0 l/m 0,0 km/h (0 Bft) NW 315 0 min -1,7 C 1,7 C 0,0 km/h (0 Bft)
30.03.2020 21:15 1,7 C 0 % 78 % 1025,0 hPa 0,0 l/m 0,0 km/h (0 Bft) NW 315 0 min -1,7 C 1,7 C 0,0 km/h (0 Bft)
30.03.2020 21:10 1,7 C 0 % 78 % 1025,0 hPa 0,0 l/m 0,0 km/h (0 Bft) N-NO 22 0 min -1,7 C 1,7 C 0,0 km/h (0 Bft)
30.03.2020 21:05 1,8 C 0 % 77 % 1025,0 hPa 0,0 l/m 0,0 km/h (0 Bft) SW 225 0 min -1,8 C 1,8 C 0,0 km/h (0 Bft)
30.03.2020 21:00 1,9 C 0 % 77 % 1024,7 hPa 0,0 l/m 0,0 km/h (0 Bft) SW 225 0 min -1,7 C 1,9 C 0,0 km/h (0 Bft)
30.03.2020 20:55 1,9 C 0 % 77 % 1024,7 hPa 0,0 l/m 0,0 km/h (0 Bft) SW 225 0 min -1,7 C 1,9 C 0,0 km/h (0 Bft)
30.03.2020 20:50 2,0 C 0 % 77 % 1024,7 hPa 0,0 l/m 0,0 km/h (0 Bft) S 180 0 min -1,6 C 2,0 C 0,0 km/h (0 Bft)
30.03.2020 20:45 2,1 C 0 % 77 % 1024,7 hPa 0,0 l/m 0,0 km/h (0 Bft) SW 225 0 min -1,5 C 2,1 C 0,0 km/h (0 Bft)
30.03.2020 20:40 2,1 C 0 % 76 % 1024,6 hPa 0,0 l/m 0,0 km/h (0 Bft) N-NW 337 0 min -1,7 C 2,1 C 0,0 km/h (0 Bft)
30.03.2020 20:35 2,2 C 0 % 76 % 1024,6 hPa 0,0 l/m 0,0 km/h (0 Bft) NW 315 0 min -1,6 C 2,2 C 0,0 km/h (0 Bft)
30.03.2020 20:30 2,3 C 0 % 76 % 1024,6 hPa 0,0 l/m 0,3 km/h (0 Bft) NW 315 0 min -1,5 C 2,3 C 0,0 km/h (0 Bft)
30.03.2020 20:25 2,3 C 0 % 76 % 1024,6 hPa 0,0 l/m 1,4 km/h (1 Bft) W 270 0 min -1,5 C 2,3 C 0,0 km/h (0 Bft)
30.03.2020 20:20 2,4 C 0 % 76 % 1024,6 hPa 0,0 l/m 2,1 km/h (1 Bft) N-NW 337 0 min -1,4 C 2,4 C 3,1 km/h (1 Bft)
30.03.2020 20:15 2,4 C 0 % 76 % 1024,6 hPa 0,0 l/m 2,1 km/h (1 Bft) N 360 0 min -1,4 C 2,4 C 2,1 km/h (1 Bft)
30.03.2020 20:10 2,4 C 0 % 76 % 1024,6 hPa 0,0 l/m 2,6 km/h (1 Bft) N-NW 337 0 min -1,4 C 2,4 C 3,1 km/h (1 Bft)
30.03.2020 20:05 2,4 C 0 % 76 % 1024,6 hPa 0,0 l/m 2,3 km/h (1 Bft) NW 315 0 min -1,4 C 2,4 C 5,0 km/h (1 Bft)
30.03.2020 20:00 2,4 C 0 % 76 % 1025,3 hPa 0,0 l/m 2,1 km/h (1 Bft) N 360 0 min -1,4 C 2,4 C 1,8 km/h (1 Bft)
30.03.2020 19:55 2,4 C 0 % 77 % 1025,3 hPa 0,0 l/m 2,3 km/h (1 Bft) NW 315 0 min -1,2 C 2,4 C 2,6 km/h (1 Bft)
30.03.2020 19:50 2,3 C 0 % 77 % 1025,3 hPa 0,0 l/m 3,4 km/h (1 Bft) NW 315 0 min -1,3 C 2,3 C 3,5 km/h (1 Bft)
30.03.2020 19:45 2,4 C 0 % 77 % 1025,3 hPa 0,0 l/m 3,5 km/h (1 Bft) N-NW 337 0 min -1,2 C 2,4 C 3,9 km/h (1 Bft)
30.03.2020 19:40 2,3 C 0 % 78 % 1024,5 hPa 0,0 l/m 3,2 km/h (1 Bft) NW 315 0 min -1,1 C 2,3 C 5,5 km/h (1 Bft)
30.03.2020 19:35 2,3 C 0 % 78 % 1024,5 hPa 0,0 l/m 3,2 km/h (1 Bft) N-NW 337 0 min -1,1 C 2,3 C 4,5 km/h (1 Bft)
30.03.2020 19:30 2,2 C 0 % 79 % 1024,5 hPa 0,0 l/m 3,4 km/h (1 Bft) NW 315 0 min -1,1 C 2,2 C 3,9 km/h (1 Bft)
30.03.2020 19:25 2,1 C 0 % 80 % 1024,5 hPa 0,0 l/m 3,2 km/h (1 Bft) NW 315 0 min -1,0 C 2,1 C 7,7 km/h (2 Bft)
30.03.2020 19:20 2,1 C 0 % 80 % 1024,4 hPa 0,0 l/m 2,1 km/h (1 Bft) N-NW 337 0 min -1,0 C 2,1 C 4,2 km/h (1 Bft)
30.03.2020 19:15 2,1 C 1 % 80 % 1024,4 hPa 0,0 l/m 0,5 km/h (0 Bft) N-NW 337 0 min -1,0 C 2,1 C 4,8 km/h (1 Bft)
30.03.2020 19:10 2,1 C 5 % 80 % 1024,4 hPa 0,0 l/m 0,8 km/h (0 Bft) NW 315 0 min -1,0 C 2,1 C 0,0 km/h (0 Bft)
30.03.2020 19:05 2,1 C 7 % 80 % 1024,4 hPa 0,0 l/m 1,6 km/h (1 Bft) O 90 0 min -1,0 C 2,1 C 0,0 km/h (0 Bft)
30.03.2020 19:00 2,2 C 10 % 80 % 1024,4 hPa 0,0 l/m 1,1 km/h (1 Bft) SO 135 0 min -0,9 C 2,2 C 2,6 km/h (1 Bft)
30.03.2020 18:55 2,2 C 8 % 80 % 1024,4 hPa 0,0 l/m 0,6 km/h (0 Bft) SO 135 0 min -0,9 C 2,2 C 2,1 km/h (1 Bft)
30.03.2020 18:50 2,2 C 4 % 80 % 1024,4 hPa 0,0 l/m 0,3 km/h (0 Bft) O-SO 112 0 min -0,9 C 2,2 C 0,0 km/h (0 Bft)
30.03.2020 18:45 2,3 C 5 % 79 % 1024,4 hPa 0,0 l/m 0,3 km/h (0 Bft) SO 135 0 min -1,0 C 2,3 C 0,0 km/h (0 Bft)
30.03.2020 18:40 2,4 C 9 % 78 % 1024,6 hPa 0,0 l/m 0,2 km/h (0 Bft) O-NO 67 0 min -1,0 C 2,4 C 0,0 km/h (0 Bft)
30.03.2020 18:35 2,3 C 11 % 77 % 1024,6 hPa 0,0 l/m 0,3 km/h (0 Bft) O-SO 112 0 min -1,3 C 2,3 C 0,0 km/h (0 Bft)
30.03.2020 18:30 2,3 C 18 % 77 % 1024,6 hPa 0,0 l/m 1,0 km/h (0 Bft) N-NO 22 0 min -1,3 C 2,3 C 0,0 km/h (0 Bft)
30.03.2020 18:25 2,2 C 19 % 78 % 1024,6 hPa 0,0 l/m 2,1 km/h (1 Bft) N-NO 22 0 min -1,2 C 2,2 C 2,4 km/h (1 Bft)
30.03.2020 18:20 2,1 C 20 % 78 % 1024,6 hPa 0,0 l/m 3,1 km/h (1 Bft) W-NW 292 0 min -1,3 C 2,1 C 0,0 km/h (0 Bft)
30.03.2020 18:15 2,1 C 19 % 78 % 1024,6 hPa 0,0 l/m 4,0 km/h (1 Bft) W 270 0 min -1,3 C 2,1 C 5,3 km/h (1 Bft)
30.03.2020 18:10 2,1 C 15 % 79 % 1024,6 hPa 0,0 l/m 2,7 km/h (1 Bft) W-SW 247 0 min -1,2 C 2,1 C 3,9 km/h (1 Bft)
30.03.2020 18:05 2,1 C 13 % 80 % 1024,6 hPa 0,0 l/m 0,8 km/h (0 Bft) O-SO 112 0 min -1,0 C 2,1 C 4,2 km/h (1 Bft)
30.03.2020 18:00 2,1 C 22 % 80 % 1024,8 hPa 0,0 l/m 0,6 km/h (0 Bft) SO 135 0 min -1,0 C 2,1 C 2,9 km/h (1 Bft)
30.03.2020 17:55 2,1 C 19 % 80 % 1024,8 hPa 0,0 l/m 0,6 km/h (0 Bft) S-SO 157 0 min -1,0 C 2,1 C 2,1 km/h (1 Bft)
30.03.2020 17:50 2,1 C 22 % 80 % 1024,8 hPa 0,0 l/m 0,2 km/h (0 Bft) SW 225 0 min -1,0 C 2,1 C 0,0 km/h (0 Bft)
30.03.2020 17:45 2,0 C 27 % 80 % 1024,8 hPa 0,0 l/m 0,5 km/h (0 Bft) NO 45 0 min -1,1 C 2,0 C 0,0 km/h (0 Bft)
30.03.2020 17:40 1,9 C 37 % 80 % 1024,9 hPa 0,0 l/m 1,0 km/h (0 Bft) SO 135 0 min -1,2 C 1,9 C 0,0 km/h (0 Bft)
30.03.2020 17:35 2,0 C 41 % 80 % 1024,9 hPa 0,0 l/m 1,3 km/h (1 Bft) NO 45 0 min -1,1 C 2,0 C 1,9 km/h (1 Bft)
30.03.2020 17:30 2,1 C 36 % 78 % 1024,9 hPa 0,0 l/m 1,9 km/h (1 Bft) N-NO 22 0 min -1,3 C 2,1 C 2,9 km/h (1 Bft)
30.03.2020 17:25 2,1 C 44 % 78 % 1024,9 hPa 0,0 l/m 2,1 km/h (1 Bft) N-NO 22 0 min -1,3 C 2,1 C 4,0 km/h (1 Bft)
30.03.2020 17:20 2,2 C 42 % 76 % 1025,8 hPa 0,0 l/m 1,6 km/h (1 Bft) NW 315 0 min -1,6 C 2,2 C 0,0 km/h (0 Bft)
30.03.2020 17:15 2,2 C 39 % 77 % 1025,8 hPa 0,0 l/m 2,6 km/h (1 Bft) N-NW 337 0 min -1,4 C 2,2 C 2,7 km/h (1 Bft)
30.03.2020 17:10 2,1 C 39 % 76 % 1025,8 hPa 0,0 l/m 3,7 km/h (1 Bft) NW 315 0 min -1,7 C 2,1 C 4,2 km/h (1 Bft)
30.03.2020 17:05 2,2 C 40 % 77 % 1025,8 hPa 0,0 l/m 5,1 km/h (1 Bft) NW 315 0 min -1,4 C 0,9 C 3,4 km/h (1 Bft)
30.03.2020 17:00 2,4 C 42 % 77 % 1025,1 hPa 0,0 l/m 6,1 km/h (2 Bft) W 270 0 min -1,2 C 0,7 C 5,8 km/h (2 Bft)
30.03.2020 16:55 2,4 C 43 % 77 % 1025,1 hPa 0,0 l/m 6,4 km/h (2 Bft) W-NW 292 0 min -1,2 C 0,6 C 5,1 km/h (1 Bft)
30.03.2020 16:50 2,5 C 38 % 74 % 1025,1 hPa 0,0 l/m 6,9 km/h (2 Bft) NW 315 0 min -1,7 C 0,5 C 11,3 km/h (2 Bft)
30.03.2020 16:45 2,4 C 37 % 74 % 1025,1 hPa 0,0 l/m 8,5 km/h (2 Bft) NW 315 0 min -1,7 C -0,1 C 8,9 km/h (2 Bft)
30.03.2020 16:40 2,6 C 49 % 72 % 1025,4 hPa 0,0 l/m 9,0 km/h (2 Bft) NW 315 0 min -1,9 C 0,0 C 7,1 km/h (2 Bft)
30.03.2020 16:35 2,8 C 43 % 70 % 1025,4 hPa 0,0 l/m 9,5 km/h (2 Bft) W 270 0 min -2,1 C 0,2 C 10,6 km/h (2 Bft)
30.03.2020 16:30 3,2 C 47 % 68 % 1025,4 hPa 0,0 l/m 10,3 km/h (2 Bft) NW 315 0 min -2,1 C 0,4 C 10,6 km/h (2 Bft)
30.03.2020 16:25 3,4 C 52 % 65 % 1025,4 hPa 0,0 l/m 9,3 km/h (2 Bft) W 270 0 min -2,5 C 0,9 C 19,8 km/h (3 Bft)
30.03.2020 16:20 3,7 C 52 % 62 % 1025,2 hPa 0,0 l/m 9,2 km/h (2 Bft) NW 315 0 min -2,9 C 1,3 C 8,0 km/h (2 Bft)
30.03.2020 16:15 3,9 C 50 % 60 % 1025,2 hPa 0,0 l/m 9,3 km/h (2 Bft) NW 315 0 min -3,1 C 1,5 C 8,0 km/h (2 Bft)
30.03.2020 16:10 4,4 C 45 % 58 % 1025,2 hPa 0,0 l/m 10,8 km/h (2 Bft) W 270 0 min -3,1 C 1,8 C 16,4 km/h (3 Bft)
30.03.2020 16:05 4,4 C 48 % 56 % 1025,2 hPa 0,0 l/m 13,2 km/h (3 Bft) NW 315 0 min -3,6 C 1,3 C 17,1 km/h (3 Bft)
30.03.2020 16:00 4,6 C 52 % 55 % 1025,2 hPa 0,0 l/m 13,0 km/h (3 Bft) NW 315 0 min -3,6 C 1,6 C 11,6 km/h (2 Bft)
30.03.2020 15:55 4,9 C 50 % 55 % 1025,2 hPa 0,0 l/m 13,4 km/h (3 Bft) NW 315 0 min -3,4 C 1,9 C 11,7 km/h (2 Bft)
30.03.2020 15:50 5,0 C 54 % 53 % 1025,2 hPa 0,0 l/m 14,2 km/h (3 Bft) NW 315 0 min -3,8 C 1,9 C 13,0 km/h (3 Bft)
30.03.2020 15:45 5,1 C 55 % 52 % 1025,2 hPa 0,0 l/m 15,1 km/h (3 Bft) NW 315 0 min -3,9 C 1,9 C 15,3 km/h (3 Bft)
30.03.2020 15:40 5,1 C 60 % 52 % 1025,3 hPa 0,0 l/m 16,1 km/h (3 Bft) N-NW 337 0 min -3,9 C 1,7 C 25,6 km/h (4 Bft)
30.03.2020 15:35 5,3 C 61 % 51 % 1025,3 hPa 0,0 l/m 17,1 km/h (3 Bft) NW 315 0 min -4,0 C 1,8 C 15,9 km/h (3 Bft)
30.03.2020 15:30 5,8 C 59 % 48 % 1025,3 hPa 0,0 l/m 12,7 km/h (3 Bft) N 360 0 min -4,3 C 3,1 C 25,4 km/h (4 Bft)
30.03.2020 15:25 6,3 C 62 % 46 % 1025,3 hPa 0,0 l/m 7,7 km/h (2 Bft) O-NO 67 0 min -4,5 C 4,7 C 5,5 km/h (1 Bft)
30.03.2020 15:20 6,6 C 65 % 44 % 1025,4 hPa 0,0 l/m 6,4 km/h (2 Bft) W-NW 292 0 min -4,8 C 5,4 C 9,5 km/h (2 Bft)
30.03.2020 15:15 6,7 C 62 % 44 % 1025,4 hPa 0,0 l/m 5,8 km/h (2 Bft) W-NW 292 0 min -4,7 C 5,7 C 4,7 km/h (1 Bft)
30.03.2020 15:10 6,6 C 69 % 44 % 1025,4 hPa 0,0 l/m 7,4 km/h (2 Bft) W-SW 247 0 min -4,8 C 5,2 C 2,6 km/h (1 Bft)
30.03.2020 15:05 6,6 C 69 % 43 % 1025,4 hPa 0,0 l/m 8,7 km/h (2 Bft) W 270 0 min -5,1 C 4,8 C 8,7 km/h (2 Bft)
30.03.2020 15:00 6,9 C 69 % 42 % 1025,8 hPa 0,0 l/m 8,2 km/h (2 Bft) W-SW 247 0 min -5,1 C 5,3 C 14,8 km/h (3 Bft)
30.03.2020 14:55 6,8 C 68 % 44 % 1025,8 hPa 0,0 l/m 5,6 km/h (1 Bft) W-SW 247 0 min -4,6 C 5,9 C 11,1 km/h (2 Bft)
30.03.2020 14:50 6,0 C 64 % 44 % 1025,8 hPa 0,0 l/m 4,5 km/h (1 Bft) W 270 0 min -5,3 C 6,0 C 5,5 km/h (1 Bft)
30.03.2020 14:45 5,3 C 69 % 43 % 1025,8 hPa 0,0 l/m 4,8 km/h (1 Bft) NW 315 0 min -6,2 C 4,5 C 6,6 km/h (2 Bft)
30.03.2020 14:40 5,2 C 68 % 44 % 1026,3 hPa 0,0 l/m 6,0 km/h (2 Bft) N-NO 22 0 min -6,0 C 4,0 C 2,7 km/h (1 Bft)
30.03.2020 14:35 5,5 C 65 % 42 % 1026,3 hPa 0,0 l/m 6,6 km/h (2 Bft) N-NW 337 0 min -6,4 C 4,1 C 2,4 km/h (1 Bft)
30.03.2020 14:30 5,6 C 67 % 43 % 1026,3 hPa 0,0 l/m 6,1 km/h (2 Bft) W 270 0 min -6,0 C 4,4 C 9,2 km/h (2 Bft)
30.03.2020 14:25 5,7 C 67 % 43 % 1026,3 hPa 0,0 l/m 6,9 km/h (2 Bft) W-SW 247 0 min -5,9 C 4,3 C 8,7 km/h (2 Bft)
30.03.2020 14:20 5,2 C 67 % 45 % 1026,6 hPa 0,0 l/m 7,7 km/h (2 Bft) W-NW 292 0 min -5,7 C 3,4 C 8,7 km/h (2 Bft)
30.03.2020 14:15 5,0 C 65 % 44 % 1026,6 hPa 0,0 l/m 7,1 km/h (2 Bft) W-SW 247 0 min -6,2 C 3,4 C 8,4 km/h (2 Bft)
30.03.2020 14:10 5,0 C 68 % 46 % 1026,6 hPa 0,0 l/m 6,1 km/h (2 Bft) W 270 0 min -5,6 C 3,7 C 8,7 km/h (2 Bft)
30.03.2020 14:05 4,7 C 69 % 46 % 1026,6 hPa 0,0 l/m 8,5 km/h (2 Bft) NW 315 0 min -5,9 C 2,7 C 4,3 km/h (1 Bft)
30.03.2020 14:00 4,9 C 68 % 45 % 1027,0 hPa 0,0 l/m 10,1 km/h (2 Bft) W 270 0 min -6,0 C 2,5 C 20,6 km/h (4 Bft)
30.03.2020 13:55 4,9 C 69 % 44 % 1027,0 hPa 0,0 l/m 9,5 km/h (2 Bft) N-NO 22 0 min -6,3 C 2,7 C 9,7 km/h (2 Bft)
30.03.2020 13:50 5,1 C 69 % 44 % 1027,0 hPa 0,0 l/m 8,2 km/h (2 Bft) W 270 0 min -6,1 C 3,2 C 13,2 km/h (3 Bft)
30.03.2020 13:45 5,2 C 70 % 45 % 1027,0 hPa 0,0 l/m 6,6 km/h (2 Bft) W 270 0 min -5,7 C 3,8 C 6,3 km/h (2 Bft)
30.03.2020 13:40 5,0 C 71 % 42 % 1027,4 hPa 0,0 l/m 4,8 km/h (1 Bft) N-NW 337 0 min -6,8 C 4,2 C 11,4 km/h (2 Bft)
30.03.2020 13:35 4,7 C 70 % 45 % 1027,4 hPa 0,0 l/m 3,1 km/h (1 Bft) S-SO 157 0 min -6,2 C 4,7 C 5,8 km/h (2 Bft)
30.03.2020 13:30 4,0 C 70 % 42 % 1027,4 hPa 0,0 l/m 2,3 km/h (1 Bft) W 270 0 min -7,7 C 4,0 C 5,8 km/h (2 Bft)
30.03.2020 13:25 3,9 C 70 % 43 % 1027,4 hPa 0,0 l/m 4,3 km/h (1 Bft) SO 135 0 min -7,5 C 3,9 C 3,2 km/h (1 Bft)
30.03.2020 13:20 4,1 C 70 % 42 % 1027,6 hPa 0,0 l/m 5,5 km/h (1 Bft) S 180 0 min -7,6 C 2,9 C 3,1 km/h (1 Bft)
30.03.2020 13:15 4,4 C 70 % 42 % 1027,6 hPa 0,0 l/m 6,0 km/h (2 Bft) W-SW 247 0 min -7,4 C 3,0 C 7,4 km/h (2 Bft)
30.03.2020 13:10 4,3 C 63 % 42 % 1027,6 hPa 0,0 l/m 6,1 km/h (2 Bft) SO 135 0 min -7,5 C 2,9 C 8,7 km/h (2 Bft)
30.03.2020 13:05 4,1 C 64 % 43 % 1027,6 hPa 0,0 l/m 5,6 km/h (1 Bft) O 90 0 min -7,3 C 2,8 C 0,0 km/h (0 Bft)
30.03.2020 13:00 4,1 C 65 % 43 % 1028,2 hPa 0,0 l/m 6,0 km/h (2 Bft) W 270 0 min -7,3 C 2,7 C 3,4 km/h (1 Bft)
30.03.2020 12:55 3,7 C 69 % 42 % 1028,2 hPa 0,0 l/m 5,3 km/h (1 Bft) S-SW 202 0 min -8,0 C 2,5 C 8,2 km/h (2 Bft)
30.03.2020 12:50 3,7 C 66 % 43 % 1028,2 hPa 0,0 l/m 3,9 km/h (1 Bft) NW 315 0 min -7,7 C 3,7 C 3,2 km/h (1 Bft)
30.03.2020 12:45 3,7 C 63 % 43 % 1028,2 hPa 0,0 l/m 3,9 km/h (1 Bft) S 180 0 min -7,7 C 3,7 C 1,9 km/h (1 Bft)
30.03.2020 12:40 3,1 C 63 % 44 % 1028,9 hPa 0,0 l/m 4,8 km/h (1 Bft) W 270 0 min -7,9 C 2,0 C 5,5 km/h (1 Bft)
30.03.2020 12:35 3,1 C 65 % 43 % 1028,9 hPa 0,0 l/m 6,1 km/h (2 Bft) S-SW 202 0 min -8,2 C 1,5 C 6,8 km/h (2 Bft)
30.03.2020 12:30 3,2 C 64 % 44 % 1028,9 hPa 0,0 l/m 6,3 km/h (2 Bft) SW 225 0 min -7,9 C 1,5 C 13,7 km/h (3 Bft)
30.03.2020 12:25 3,1 C 62 % 44 % 1028,9 hPa 0,0 l/m 4,3 km/h (1 Bft) W-NW 292 0 min -7,9 C 3,1 C 6,1 km/h (2 Bft)
30.03.2020 12:20 3,0 C 63 % 44 % 1029,2 hPa 0,0 l/m 3,4 km/h (1 Bft) W 270 0 min -8,0 C 3,0 C 4,8 km/h (1 Bft)
30.03.2020 12:15 3,1 C 65 % 44 % 1029,2 hPa 0,0 l/m 4,2 km/h (1 Bft) W-NW 292 0 min -7,9 C 3,1 C 4,0 km/h (1 Bft)
30.03.2020 12:10 3,2 C 66 % 42 % 1029,2 hPa 0,0 l/m 4,2 km/h (1 Bft) SW 225 0 min -8,4 C 3,2 C 12,1 km/h (2 Bft)
30.03.2020 12:05 3,2 C 71 % 44 % 1029,2 hPa 0,0 l/m 3,1 km/h (1 Bft) W-NW 292 0 min -7,9 C 3,2 C 3,2 km/h (1 Bft)
30.03.2020 12:00 3,1 C 64 % 45 % 1029,8 hPa 0,0 l/m 3,2 km/h (1 Bft) W-SW 247 0 min -7,7 C 3,1 C 4,8 km/h (1 Bft)
30.03.2020 11:55 2,5 C 65 % 45 % 1029,8 hPa 0,0 l/m 3,5 km/h (1 Bft) NW 315 0 min -8,2 C 2,5 C 2,9 km/h (1 Bft)
30.03.2020 11:50 2,2 C 64 % 45 % 1029,8 hPa 0,0 l/m 2,9 km/h (1 Bft) W 270 0 min -8,5 C 2,2 C 3,5 km/h (1 Bft)
30.03.2020 11:45 1,6 C 66 % 44 % 1029,8 hPa 0,0 l/m 2,4 km/h (1 Bft) O-NO 67 0 min -9,3 C 1,6 C 0,0 km/h (0 Bft)
30.03.2020 11:40 2,0 C 65 % 45 % 1029,8 hPa 0,0 l/m 2,9 km/h (1 Bft) N-NO 22 0 min -8,7 C 2,0 C 2,9 km/h (1 Bft)
30.03.2020 11:35 2,0 C 64 % 46 % 1029,8 hPa 0,0 l/m 2,9 km/h (1 Bft) W-NW 292 0 min -8,4 C 2,0 C 6,9 km/h (2 Bft)
30.03.2020 11:30 1,9 C 66 % 45 % 1029,8 hPa 0,0 l/m 2,7 km/h (1 Bft) SO 135 0 min -8,8 C 1,9 C 2,3 km/h (1 Bft)
30.03.2020 11:25 1,7 C 65 % 48 % 1029,8 hPa 0,0 l/m 3,7 km/h (1 Bft) N-NW 337 0 min -8,1 C 1,7 C 1,9 km/h (1 Bft)
30.03.2020 11:20 1,7 C 66 % 47 % 1030,0 hPa 0,0 l/m 3,7 km/h (1 Bft) W-SW 247 0 min -8,4 C 1,7 C 4,5 km/h (1 Bft)
30.03.2020 11:15 1,4 C 68 % 47 % 1030,0 hPa 0,0 l/m 4,0 km/h (1 Bft) W 270 0 min -8,7 C 1,4 C 4,2 km/h (1 Bft)
30.03.2020 11:10 1,6 C 68 % 49 % 1030,0 hPa 0,0 l/m 4,0 km/h (1 Bft) W-SW 247 0 min -7,9 C 1,6 C 5,3 km/h (1 Bft)
30.03.2020 11:05 1,2 C 68 % 52 % 1030,0 hPa 0,0 l/m 2,3 km/h (1 Bft) S-SO 157 0 min -7,5 C 1,2 C 4,3 km/h (1 Bft)
30.03.2020 11:00 0,9 C 68 % 52 % 1029,9 hPa 0,0 l/m 1,8 km/h (1 Bft) SO 135 0 min -7,8 C 0,9 C 4,3 km/h (1 Bft)
30.03.2020 10:55 0,8 C 66 % 52 % 1029,9 hPa 0,0 l/m 1,1 km/h (1 Bft) SO 135 0 min -7,9 C 0,8 C 3,9 km/h (1 Bft)
30.03.2020 10:50 0,7 C 65 % 53 % 1029,9 hPa 0,0 l/m 2,7 km/h (1 Bft) S-SW 202 0 min -7,8 C 0,7 C 3,4 km/h (1 Bft)
30.03.2020 10:45 0,8 C 64 % 51 % 1029,9 hPa 0,0 l/m 4,3 km/h (1 Bft) SW 225 0 min -8,2 C 0,8 C 8,9 km/h (2 Bft)
30.03.2020 10:40 0,7 C 66 % 53 % 1029,9 hPa 0,0 l/m 4,0 km/h (1 Bft) S 180 0 min -7,8 C 0,7 C 6,1 km/h (2 Bft)
30.03.2020 10:35 0,5 C 67 % 56 % 1029,9 hPa 0,0 l/m 2,1 km/h (1 Bft) W 270 0 min -7,2 C 0,5 C 5,0 km/h (1 Bft)
30.03.2020 10:30 0,2 C 67 % 55 % 1029,9 hPa 0,0 l/m 1,1 km/h (1 Bft) N-NW 337 0 min -7,8 C 0,2 C 0,0 km/h (0 Bft)
30.03.2020 10:25 0,3 C 67 % 56 % 1029,9 hPa 0,0 l/m 2,6 km/h (1 Bft) NO 45 0 min -7,4 C 0,3 C 3,1 km/h (1 Bft)
30.03.2020 10:20 0,1 C 67 % 60 % 1029,8 hPa 0,0 l/m 3,1 km/h (1 Bft) N-NW 337 0 min -6,7 C 0,1 C 1,6 km/h (1 Bft)
30.03.2020 10:15 -0,1 C 65 % 62 % 1029,8 hPa 0,0 l/m 3,1 km/h (1 Bft) W 270 0 min -6,5 C -0,1 C 2,7 km/h (1 Bft)
30.03.2020 10:10 -0,2 C 65 % 62 % 1029,8 hPa 0,0 l/m 4,2 km/h (1 Bft) W-SW 247 0 min -6,6 C -0,2 C 4,8 km/h (1 Bft)
30.03.2020 10:05 -0,5 C 67 % 64 % 1029,8 hPa 0,0 l/m 3,9 km/h (1 Bft) W-NW 292 0 min -6,5 C -0,5 C 7,9 km/h (2 Bft)
30.03.2020 10:00 -0,8 C 69 % 65 % 1029,6 hPa 0,0 l/m 3,5 km/h (1 Bft) W-NW 292 0 min -6,5 C -0,8 C 7,6 km/h (2 Bft)
30.03.2020 09:55 -1,0 C 70 % 65 % 1029,6 hPa 0,0 l/m 3,1 km/h (1 Bft) W 270 0 min -6,7 C -1,0 C 1,9 km/h (1 Bft)
30.03.2020 09:50 -1,3 C 71 % 66 % 1029,6 hPa 0,0 l/m 3,1 km/h (1 Bft) W-SW 247 0 min -6,8 C -1,3 C 4,5 km/h (1 Bft)
30.03.2020 09:45 -1,4 C 71 % 66 % 1029,6 hPa 0,0 l/m 4,2 km/h (1 Bft) SW 225 0 min -6,9 C -1,4 C 4,7 km/h (1 Bft)
30.03.2020 09:40 -1,7 C 70 % 67 % 1029,6 hPa 0,0 l/m 4,7 km/h (1 Bft) W-SW 247 0 min -7,0 C -3,4 C 5,1 km/h (1 Bft)
30.03.2020 09:35 -1,9 C 70 % 68 % 1029,6 hPa 0,0 l/m 4,5 km/h (1 Bft) SW 225 0 min -7,0 C -1,9 C 5,5 km/h (1 Bft)
30.03.2020 09:30 -2,1 C 70 % 68 % 1029,6 hPa 0,0 l/m 3,5 km/h (1 Bft) W-SW 247 0 min -7,2 C -2,1 C 7,6 km/h (2 Bft)
30.03.2020 09:25 -2,2 C 69 % 69 % 1029,6 hPa 0,0 l/m 4,3 km/h (1 Bft) W-NW 292 0 min -7,1 C -2,2 C 2,9 km/h (1 Bft)
30.03.2020 09:20 -2,3 C 68 % 69 % 1029,4 hPa 0,0 l/m 5,0 km/h (1 Bft) W-NW 292 0 min -7,2 C -4,2 C 4,5 km/h (1 Bft)
30.03.2020 09:15 -2,5 C 68 % 71 % 1029,4 hPa 0,0 l/m 4,8 km/h (1 Bft) W 270 0 min -7,0 C -4,3 C 6,4 km/h (2 Bft)
30.03.2020 09:10 -3,1 C 68 % 77 % 1029,4 hPa 0,0 l/m 4,3 km/h (1 Bft) O-SO 112 0 min -6,5 C -3,1 C 7,1 km/h (2 Bft)
30.03.2020 09:05 -3,4 C 67 % 78 % 1029,4 hPa 0,0 l/m 4,8 km/h (1 Bft) SW 225 0 min -6,7 C -5,3 C 0,0 km/h (0 Bft)
30.03.2020 09:00 -3,7 C 66 % 79 % 1028,9 hPa 0,0 l/m 4,7 km/h (1 Bft) W-NW 292 0 min -6,8 C -5,6 C 8,0 km/h (2 Bft)
30.03.2020 08:55 -3,9 C 65 % 81 % 1028,9 hPa 0,0 l/m 3,5 km/h (1 Bft) W 270 0 min -6,7 C -3,9 C 7,1 km/h (2 Bft)
30.03.2020 08:50 -4,5 C 64 % 83 % 1028,9 hPa 0,0 l/m 2,7 km/h (1 Bft) SW 225 0 min -6,9 C -4,5 C 2,9 km/h (1 Bft)
30.03.2020 08:45 -4,9 C 64 % 84 % 1028,9 hPa 0,0 l/m 2,6 km/h (1 Bft) W-NW 292 0 min -7,2 C -4,9 C 3,4 km/h (1 Bft)
30.03.2020 08:40 -5,4 C 61 % 85 % 1028,4 hPa 0,0 l/m 1,9 km/h (1 Bft) W 270 0 min -7,5 C -5,4 C 3,1 km/h (1 Bft)
30.03.2020 08:35 -5,7 C 61 % 85 % 1028,4 hPa 0,0 l/m 1,0 km/h (0 Bft) W-SW 247 0 min -7,8 C -5,7 C 2,7 km/h (1 Bft)
30.03.2020 08:30 -6,0 C 60 % 85 % 1028,4 hPa 0,0 l/m 0,2 km/h (0 Bft) W 270 0 min -8,1 C -6,0 C 0,0 km/h (0 Bft)
30.03.2020 08:25 -6,2 C 59 % 85 % 1028,4 hPa 0,0 l/m 0,6 km/h (0 Bft) S-SW 202 0 min -8,3 C -6,2 C 0,0 km/h (0 Bft)
30.03.2020 08:20 -6,5 C 57 % 85 % 1028,3 hPa 0,0 l/m 0,8 km/h (0 Bft) O-SO 112 0 min -8,6 C -6,5 C 0,0 km/h (0 Bft)
30.03.2020 08:15 -6,7 C 57 % 85 % 1028,3 hPa 0,0 l/m 0,6 km/h (0 Bft) W 270 0 min -8,8 C -6,7 C 1,6 km/h (1 Bft)
30.03.2020 08:10 -6,9 C 55 % 85 % 1028,3 hPa 0,0 l/m 0,2 km/h (0 Bft) W-SW 247 0 min -9,0 C -6,9 C 0,0 km/h (0 Bft)
30.03.2020 08:05 -7,0 C 55 % 84 % 1028,3 hPa 0,0 l/m 0,3 km/h (0 Bft) W 270 0 min -9,2 C -7,0 C 0,0 km/h (0 Bft)
30.03.2020 08:00 -7,3 C 53 % 84 % 1028,2 hPa 0,0 l/m 0,2 km/h (0 Bft) S-SW 202 0 min -9,5 C -7,3 C 0,0 km/h (0 Bft)
30.03.2020 07:55 -7,4 C 49 % 84 % 1028,2 hPa 0,0 l/m 0,0 km/h (0 Bft) SW 225 0 min -9,6 C -7,4 C 0,0 km/h (0 Bft)
30.03.2020 07:50 -7,6 C 49 % 84 % 1028,2 hPa 0,0 l/m 0,3 km/h (0 Bft) O-SO 112 0 min -9,8 C -7,6 C 0,0 km/h (0 Bft)
30.03.2020 07:45 -7,7 C 48 % 84 % 1028,2 hPa 0,0 l/m 0,3 km/h (0 Bft) SW 225 0 min -9,9 C -7,7 C 1,6 km/h (1 Bft)
30.03.2020 07:40 -7,8 C 46 % 84 % 1028,4 hPa 0,0 l/m 0,0 km/h (0 Bft) S-SW 202 0 min -10,0 C -7,8 C 0,0 km/h (0 Bft)
30.03.2020 07:35 -7,9 C 43 % 84 % 1028,4 hPa 0,0 l/m 0,2 km/h (0 Bft) S-SW 202 0 min -10,1 C -7,9 C 0,0 km/h (0 Bft)
30.03.2020 07:30 -7,9 C 23 % 84 % 1028,4 hPa 0,0 l/m 0,2 km/h (0 Bft) SW 225 0 min -10,1 C -7,9 C 0,0 km/h (0 Bft)
30.03.2020 07:25 -8,0 C 20 % 84 % 1028,4 hPa 0,0 l/m 0,2 km/h (0 Bft) SW 225 0 min -10,2 C -8,0 C 0,0 km/h (0 Bft)
30.03.2020 07:20 -8,0 C 31 % 84 % 1028,4 hPa 0,0 l/m 0,0 km/h (0 Bft) SW 225 0 min -10,2 C -8,0 C 0,0 km/h (0 Bft)
30.03.2020 07:15 -7,9 C 31 % 84 % 1028,4 hPa 0,0 l/m 0,0 km/h (0 Bft) W-SW 247 0 min -10,1 C -7,9 C 0,0 km/h (0 Bft)
30.03.2020 07:10 -7,9 C 25 % 83 % 1028,4 hPa 0,0 l/m 0,3 km/h (0 Bft) S-SO 157 0 min -10,3 C -7,9 C 0,0 km/h (0 Bft)
30.03.2020 07:05 -7,9 C 17 % 83 % 1028,4 hPa 0,0 l/m 0,5 km/h (0 Bft) W-NW 292 0 min -10,3 C -7,9 C 0,0 km/h (0 Bft)
30.03.2020 07:00 -7,9 C 3 % 83 % 1028,3 hPa 0,0 l/m 1,1 km/h (1 Bft) SW 225 0 min -10,3 C -7,9 C 2,4 km/h (1 Bft)
30.03.2020 06:55 -7,9 C 0 % 83 % 1028,3 hPa 0,0 l/m 1,0 km/h (0 Bft) W-SW 247 0 min -10,3 C -7,9 C 0,0 km/h (0 Bft)
30.03.2020 06:50 -7,9 C 0 % 83 % 1028,3 hPa 0,0 l/m 1,0 km/h (0 Bft) W-SW 247 0 min -10,3 C -7,9 C 2,6 km/h (1 Bft)
30.03.2020 06:45 -7,9 C 0 % 82 % 1028,3 hPa 0,0 l/m 0,8 km/h (0 Bft) SW 225 0 min -10,4 C -7,9 C 0,0 km/h (0 Bft)
30.03.2020 06:40 -7,9 C 0 % 82 % 1028,3 hPa 0,0 l/m 0,3 km/h (0 Bft) SW 225 0 min -10,4 C -7,9 C 1,8 km/h (1 Bft)
30.03.2020 06:35 -7,9 C 0 % 82 % 1028,3 hPa 0,0 l/m 0,5 km/h (0 Bft) W-SW 247 0 min -10,4 C -7,9 C 2,6 km/h (1 Bft)
30.03.2020 06:30 -7,8 C 0 % 82 % 1028,3 hPa 0,0 l/m 0,3 km/h (0 Bft) SW 225 0 min -10,3 C -7,8 C 1,6 km/h (1 Bft)
30.03.2020 06:25 -7,8 C 0 % 81 % 1028,3 hPa 0,0 l/m 0,2 km/h (0 Bft) S-SW 202 0 min -10,5 C -7,8 C 0,0 km/h (0 Bft)
30.03.2020 06:20 -7,7 C 0 % 81 % 1028,5 hPa 0,0 l/m 0,2 km/h (0 Bft) S-SW 202 0 min -10,4 C -7,7 C 0,0 km/h (0 Bft)
30.03.2020 06:15 -7,6 C 0 % 81 % 1028,5 hPa 0,0 l/m 0,0 km/h (0 Bft) S-SW 202 0 min -10,3 C -7,6 C 0,0 km/h (0 Bft)
30.03.2020 06:10 -7,6 C 0 % 81 % 1028,5 hPa 0,0 l/m 0,0 km/h (0 Bft) W 270 0 min -10,3 C -7,6 C 0,0 km/h (0 Bft)
30.03.2020 06:05 -7,5 C 0 % 81 % 1028,5 hPa 0,0 l/m 0,0 km/h (0 Bft) W-SW 247 0 min -10,2 C -7,5 C 0,0 km/h (0 Bft)
30.03.2020 06:00 -7,5 C 0 % 81 % 1028,6 hPa 0,0 l/m 0,2 km/h (0 Bft) SW 225 0 min -10,2 C -7,5 C 0,0 km/h (0 Bft)
30.03.2020 05:55 -7,4 C 0 % 81 % 1028,6 hPa 0,0 l/m 0,5 km/h (0 Bft) S-SW 202 0 min -10,1 C -7,4 C 0,0 km/h (0 Bft)
30.03.2020 05:50 -7,3 C 0 % 81 % 1028,6 hPa 0,0 l/m 0,5 km/h (0 Bft) W-SW 247 0 min -10,0 C -7,3 C 2,1 km/h (1 Bft)
30.03.2020 05:45 -7,3 C 0 % 81 % 1028,6 hPa 0,0 l/m 0,8 km/h (0 Bft) SW 225 0 min -10,0 C -7,3 C 0,0 km/h (0 Bft)
30.03.2020 05:40 -7,3 C 0 % 81 % 1028,6 hPa 0,0 l/m 1,6 km/h (1 Bft) W-SW 247 0 min -10,0 C -7,3 C 0,0 km/h (0 Bft)
30.03.2020 05:35 -7,2 C 0 % 81 % 1028,6 hPa 0,0 l/m 1,4 km/h (1 Bft) W-SW 247 0 min -9,9 C -7,2 C 2,7 km/h (1 Bft)
30.03.2020 05:30 -7,2 C 0 % 81 % 1028,6 hPa 0,0 l/m 0,8 km/h (0 Bft) W 270 0 min -9,9 C -7,2 C 1,9 km/h (1 Bft)
30.03.2020 05:25 -7,1 C 0 % 81 % 1028,6 hPa 0,0 l/m 0,2 km/h (0 Bft) W-SW 247 0 min -9,8 C -7,1 C 0,0 km/h (0 Bft)
30.03.2020 05:20 -7,0 C 0 % 80 % 1028,6 hPa 0,0 l/m 0,3 km/h (0 Bft) W-SW 247 0 min -9,9 C -7,0 C 1,6 km/h (1 Bft)
30.03.2020 05:15 -6,9 C 0 % 80 % 1028,6 hPa 0,0 l/m 0,3 km/h (0 Bft) S 180 0 min -9,8 C -6,9 C 0,0 km/h (0 Bft)
30.03.2020 05:10 -6,8 C 0 % 80 % 1028,6 hPa 0,0 l/m 0,2 km/h (0 Bft) W-SW 247 0 min -9,7 C -6,8 C 1,8 km/h (1 Bft)
30.03.2020 05:05 -6,7 C 0 % 80 % 1028,6 hPa 0,0 l/m 0,8 km/h (0 Bft) W-SW 247 0 min -9,6 C -6,7 C 0,0 km/h (0 Bft)
30.03.2020 05:00 -6,7 C 0 % 80 % 1028,4 hPa 0,0 l/m 1,0 km/h (0 Bft) W 270 0 min -9,6 C -6,7 C 1,6 km/h (1 Bft)
30.03.2020 04:55 -6,7 C 0 % 80 % 1028,4 hPa 0,0 l/m 0,8 km/h (0 Bft) W-NW 292 0 min -9,6 C -6,7 C 2,4 km/h (1 Bft)
30.03.2020 04:50 -6,5 C 0 % 80 % 1028,4 hPa 0,0 l/m 1,1 km/h (1 Bft) W 270 0 min -9,4 C -6,5 C 0,0 km/h (0 Bft)
30.03.2020 04:45 -6,4 C 0 % 80 % 1028,4 hPa 0,0 l/m 1,6 km/h (1 Bft) W-SW 247 0 min -9,3 C -6,4 C 3,5 km/h (1 Bft)
30.03.2020 04:40 -6,3 C 0 % 80 % 1028,8 hPa 0,0 l/m 0,8 km/h (0 Bft) W-SW 247 0 min -9,2 C -6,3 C 3,4 km/h (1 Bft)
30.03.2020 04:35 -6,3 C 0 % 80 % 1028,8 hPa 0,0 l/m 1,0 km/h (0 Bft) SW 225 0 min -9,2 C -6,3 C 0,0 km/h (0 Bft)
30.03.2020 04:30 -6,2 C 0 % 80 % 1028,8 hPa 0,0 l/m 1,3 km/h (1 Bft) W 270 0 min -9,1 C -6,2 C 2,3 km/h (1 Bft)
30.03.2020 04:25 -6,1 C 0 % 80 % 1028,8 hPa 0,0 l/m 1,0 km/h (0 Bft) SW 225 0 min -9,0 C -6,1 C 2,1 km/h (1 Bft)
30.03.2020 04:20 -6,1 C 0 % 80 % 1029,1 hPa 0,0 l/m 0,8 km/h (0 Bft) W-SW 247 0 min -9,0 C -6,1 C 3,1 km/h (1 Bft)
30.03.2020 04:15 -6,0 C 0 % 80 % 1029,1 hPa 0,0 l/m 0,6 km/h (0 Bft) W-NW 292 0 min -8,9 C -6,0 C 1,6 km/h (1 Bft)
30.03.2020 04:10 -6,0 C 0 % 80 % 1029,1 hPa 0,0 l/m 0,6 km/h (0 Bft) W-SW 247 0 min -8,9 C -6,0 C 1,6 km/h (1 Bft)
30.03.2020 04:05 -6,0 C 0 % 80 % 1029,1 hPa 0,0 l/m 1,1 km/h (1 Bft) W-NW 292 0 min -8,9 C -6,0 C 0,0 km/h (0 Bft)
30.03.2020 04:00 -5,9 C 0 % 79 % 1029,1 hPa 0,0 l/m 0,8 km/h (0 Bft) W-SW 247 0 min -8,9 C -5,9 C 1,8 km/h (1 Bft)
30.03.2020 03:55 -5,9 C 0 % 79 % 1029,1 hPa 0,0 l/m 0,5 km/h (0 Bft) W-SW 247 0 min -8,9 C -5,9 C 1,9 km/h (1 Bft)
30.03.2020 03:50 -5,7 C 0 % 79 % 1029,1 hPa 0,0 l/m 0,3 km/h (0 Bft) S-SW 202 0 min -8,7 C -5,7 C 0,0 km/h (0 Bft)
30.03.2020 03:45 -5,6 C 0 % 79 % 1029,1 hPa 0,0 l/m 1,4 km/h (1 Bft) S 180 0 min -8,6 C -5,6 C 0,0 km/h (0 Bft)
30.03.2020 03:40 -5,5 C 0 % 79 % 1029,1 hPa 0,0 l/m 1,4 km/h (1 Bft) W-SW 247 0 min -8,5 C -5,5 C 2,4 km/h (1 Bft)
30.03.2020 03:35 -5,5 C 0 % 79 % 1029,1 hPa 0,0 l/m 0,5 km/h (0 Bft) W 270 0 min -8,5 C -5,5 C 2,6 km/h (1 Bft)
30.03.2020 03:30 -5,5 C 0 % 78 % 1029,1 hPa 0,0 l/m 0,0 km/h (0 Bft) W 270 0 min -8,7 C -5,5 C 0,0 km/h (0 Bft)
30.03.2020 03:25 -5,4 C 0 % 78 % 1029,3 hPa 0,0 l/m 0,0 km/h (0 Bft) S-SW 202 0 min -8,6 C -5,4 C 0,0 km/h (0 Bft)
30.03.2020 03:20 -5,2 C 0 % 78 % 1029,3 hPa 0,0 l/m 0,0 km/h (0 Bft) W-SW 247 0 min -8,4 C -5,2 C 0,0 km/h (0 Bft)
30.03.2020 03:16 -5,1 C 0 % 78 % 1029,3 hPa 0,0 l/m 0,0 km/h (0 Bft) SW 225 0 min -8,3 C -5,1 C 0,0 km/h (0 Bft)
30.03.2020 03:15 -5,1 C 0 % 78 % 1029,3 hPa 0,0 l/m 0,0 km/h (0 Bft) SW 225 0 min -8,3 C -5,1 C 0,0 km/h (0 Bft)
30.03.2020 03:12 -4,9 C 0 % 78 % 1029,3 hPa 0,0 l/m 0,0 km/h (0 Bft) W 270 0 min -8,1 C -4,9 C 0,0 km/h (0 Bft)
30.03.2020 03:10 -4,9 C 0 % 78 % 1029,3 hPa 0,0 l/m 0,0 km/h (0 Bft) W 270 0 min -8,1 C -4,9 C 0,0 km/h (0 Bft)
30.03.2020 03:05 -4,8 C 0 % 78 % 1029,4 hPa 0,0 l/m 0,0 km/h (0 Bft) W-NW 292 0 min -8,0 C -4,8 C 0,0 km/h (0 Bft)
30.03.2020 03:00 -4,7 C 0 % 77 % 1029,4 hPa 0,0 l/m 0,0 km/h (0 Bft) NW 315 0 min -8,1 C -4,7 C 0,0 km/h (0 Bft)
_ Min-Zeit 07:20 - 12:10 18:45 - 03:00 - - - 06:25 07:20 03:00
Minimum _ -8,0 C - 42 % 1024,4 hPa - 0,0 km/h (0 Bft) - - - -10,5 C -8,0 C 0,0 km/h (0 Bft)
_ Max-Zeit 15:00 09:45 02:40 11:05 03:00 15:35 - - 03:00 18:50 14:50 15:40
Maximum _ 6,9 C 71 % 86 % 1030,0 hPa 0,0 l/m 17,1 km/h
NW (3 Bft)
- - 0 min -0,9 C 6,0 C 25,6 km/h
N-NW (4 Bft)
Durchschnitt _ -0,4 C #0 min. 72 % 1027,1 hPa #0,0 l/m 2,3 km/h (1 Bft) W - #0 min. -5,3 C -0,8 C 2,9 km/h (1 Bft)